Location: ??????
(55.7522°N, 37.6156°E)
Time: 17:55:54
(UTC+00:00)

Cosmos 2082 - Pass Details

Date: 14 June 2025
Orbit: 831 x 855 km, 71.0° (Epoch: 12 July)

Event Time Altitude Azimuth Distance (km) Brightness Sun altitude
Exits shadow 20:31:25 - 210° (SSW) 3,147 6.2 -10.0°
Reaches altitude 10° 20:33:10 10° 210° (SSW) 2,478 5.7 -10.0°
Maximum altitude 20:38:53 85° 122° (ESE) 865 3.7 -10.2°
Drops below altitude 10° 20:44:39 10° 35° (NE) 2,499 6.8 -10.4°
Sets 20:47:07 0° 35° (NE) 3,438 7.6 -10.4°
